Regional Weather Roundup
Issued by NWS Northern Indiana

Home | Current Version | Previous Version | Graphics & Text | Print | Product List | Glossary On
Versions: 1 2 3 4 5 6 7 8 9 10 11 12 13 14 15 16 17 18 19 20 21 22 23 24 25 26 27 28 29 30 31 32 33 34 35 36 37 38 39 40 41 42 43 44 45 46 47 48 49 50
000
ASUS43 KIWX 050110
RWRIWX

KIWX WEATHER ROUNDUP
NATIONAL WEATHER SERVICE NORTHERN INDIANA
900 PM EDT MON MAY 04 2015

NOTE: "FAIR" INDICATES FEW OR NO CLOUDS BELOW 12,000 FEET WITH NO
SIGNIFICANT WEATHER AND/OR OBSTRUCTIONS TO VISIBILITY.

* THESE STATIONS ARE NOT UNDER NWS QUALITY CONTROL. THEY ALSO MAY NOT
  REPORT WEATHER SUCH AS PRECIPITATION OR FOG.

INZ001>027-050200-
NORTHERN INDIANA

CITY           SKY/WX    TMP DP  RH WIND       PRES   REMARKS
GARY*          MOCLDY    55 N/A N/A NE8       30.17R HAZE
VALPARAISO     CLOUDY    64  58  80 NE3       30.16R
MICHIGAN CITY* MOCLDY    63  50  63 CALM      30.17R
LAPORTE*       MOCLDY    67  57  71 NE5       30.16R
KNOX*          CLOUDY    66  52  59 S6        30.14R
SOUTH BEND     MOCLDY    63  55  75 N6        30.17R
GOSHEN         CLOUDY    67  60  78 CALM      30.16R
MONTICELLO*    CLOUDY    65  63  94 SE3       30.15R
LOGANSPORT*    CLOUDY    63  61  94 SE5       30.16S FOG
ROCHESTER*     CLOUDY    68  63  83 SE3       30.16S
WARSAW*        CLOUDY    64  61  88 CALM      30.17R
ANGOLA*        CLEAR     68  61  77 W3        30.16R
FORT WAYNE     LGT RAIN  64  61  90 SW3       30.17S
HUNTINGTON*    LGT RAIN  62  61  97 CALM      30.17S
PERU/GRISSOM   CLOUDY    64  62  95 SE6       30.15F
MARION*        RAIN      64  59  85 SW5       30.19S

$$
INZ028>050-050200-
CENTRAL INDIANA

CITY           SKY/WX    TMP DP  RH WIND       PRES   REMARKS
LAFAYETTE      MOCLDY    62  60  93 E6        30.14R
KOKOMO*        CLOUDY    63  61  94 SE5       30.17S
MUNCIE*        LGT RAIN  65  61  87 NW7       30.19R FOG
INDIANAPOLIS   CLOUDY    66  58  75 NE14      30.14S

$$
MIZ043>046-050>051-056>058-064>065-071>073-077>080-050200-
SOUTHWEST LOWER MICHIGAN

CITY           SKY/WX    TMP DP  RH WIND       PRES   REMARKS
BATTLE CREEK   MOCLDY    66  54  65 W6        30.16R
BENTON HARBOR  MOCLDY    57  52  83 CALM      30.17R
COLDWATER*     MOCLDY    65  54  66 W6        30.15S
HILLSDALE*     MOCLDY    66  53  62 W3        30.16R
HOLLAND        PTCLDY    56  44  64 W3        30.17R
GRAND RAPIDS   MOCLDY    64  50  60 W9        30.15R
KALAMAZOO      MOCLDY    67  54  63 W5        30.17R
STURGIS*       MOCLDY    66  57  72 CALM      30.16R
THREE RIVERS*  FAIR      65  54  67 NW3       30.16R

$$
OHZ001>008-015>018-024>025-050200-
NORTHWEST OHIO

CITY           SKY/WX    TMP DP  RH WIND       PRES   REMARKS
WAUSEON*       FAIR      66  63  88 SW8       30.16R
DEFIANCE       CLOUDY    66  61  84 S5        30.16R
FINDLAY        CLOUDY    63  60  90 S7        30.17R
TOLEDO EXPRESS MOCLDY    66  60  81 SW6       30.15R
TOLEDO METCALF MOCLDY    66  58  75 SW8       30.16R
LIMA           CLOUDY    63  60  90 CALM      30.18R

$$
AND FOR LAKE MICHIGAN COASTAL AND OPEN LAKE BUOY OBSERVATIONS

STATION/POSITION TEMP    WIND        PRES    VSBY  WAVE
                 AIR SEA DIR/SP/G                  HT/PER
                 (F)     (DEG/KT/KT) (MB)    (MI)  (FT/S)
CALUMET HARBOR    50     360/  6/  9   N/A
MICHIGAN CITY     53      20/ 10/ 12   N/A
BURNS HARBOR      54      80/  9/ 10 1021.3S
SAINT JOSEPH      54     350/  4/  5 1022.4R
4 MI NW BRIDGMAN  50 49   50/  6/  6   N/A           1
MICHIGAN CITY     49 50   60/  8/ 10   N/A           1

$$
&&


USA.gov is the U.S. government's official web portal to all federal, state and local government web resources and services.